THOR ABLESTAR DEB, 355

Orbit data source: Space-Track

THOR ABLESTAR DEB, 355 is space debris in LEO originally from a launch on Thu, 29 Jun 1961 UTC launched from the Air Force Eastern Test Range (AFETR). Debris objects in space refer to the collection of defunct objects orbiting the Earth. Examples of debris include non-operational satellites, rocket bodies, and fragments generated from explosions, collisions, or faulty payload assembly.

Loading next visibility...
THOR ABLESTAR DEB details
Identifier
355, 1961-015DV
Orbit
LEO
Last TLE update1 day ago
Origin
Flag of USUSAF SSD (US)
ManufacturerUnknown
MissionSpacecraft
Bus & MotorUnknown
MassUnknown
Launch date (UTC)
1961-06-29 (64 years ago)
Launch vehicleUnknown
Launch site
Air Force Eastern Test Range (AFETR)
Object type
Payload
Rocket body
Debris
Shape & HBRUnknown
Radar Cross SectionMedium (>0.1 m² and <1 m²)

Expand to show TLE details & history

TLE from 1 day ago
0 THOR ABLESTAR DEB
1 00355U 61015DV  25035.36900916  .00000517  00000-0  99794-3 0  9999
2 00355  67.2269  13.0637 0242871 199.9973 279.8616 13.33512877 82636
Epoch: 2025-02-04T08:51Z
Definitive object data (Epoch: 2025-02-04T08:51:22.391Z)
Latitude55.27788°
Longitude-111.61707°
Altitude1,114.977 km
Speed7.314 km/s
True Right ascension10h 24m 00s
True Declination55° 07' 28"
Sunlit
Object was in full shadow at TLE epoch
Visualization TLE readout
Latitude-26.73734°
Longitude-65.22553°
Altitude962.78 km
Speed7.457 km/s
Apparent Right ascension10h 33m 01s
Apparent Declination-48° 38' 10"
Sunlit
Object is in daylight
Visualization observer readout
Local Sidereal Time17:57:42
Azimuth235.565° WSW
Elevation-41.655°
Doppler factor1
Orbital elements
Apogee altitude1,314.33 km
Perigee altitude949.534 km
Semi-major axis7,510.069 km
Eccentricity0.0242871
Inclination67.2269°
RAAN13.0637°
Arg. of periapsis199.9973°
True anomaly277.10636°
Mean anomaly279.8616°
Eccentric anomaly278.48528°
Mean motion3.33486 °/min
BSTAR0.00099794
Orbital period107.95 mins
Loading maneuver chart data...

THOR ABLESTAR DEB Visibility forecast

Observer location: undefined°, undefined

Span
Click to sort rows by Start time (UTC) header in descending order
Start Az.
Max El. time (UTC)
Max El. Az.
Max El.
End time (UTC)
End Az.
10 mins2025-02-05 22:09:59.212Z143.478° SSE2025-02-05 22:14:59.212Z101.867° ESE20.249°2025-02-05 22:19:59.212Z59.946° ENE
14 mins2025-02-05 23:58:59.212Z212.741° SW2025-02-06 00:04:59.212Z267.241° W44.403°2025-02-06 00:12:59.212Z26.559° NE
10 mins2025-02-06 01:52:59.212Z279.368° WNW2025-02-06 01:57:59.212Z323.04° NNW19.819°2025-02-06 02:02:59.212Z5.1° NNE
9 mins2025-02-06 07:37:59.212Z359.2° N2025-02-06 07:41:59.212Z44.285° NE25.231°2025-02-06 07:46:59.212Z99.827° ESE
11 mins2025-02-06 09:27:59.212Z322.473° NNW2025-02-06 09:33:59.212Z232.617° WSW40.357°2025-02-06 09:38:59.212Z171.899° S
|